TimeCST,TemperatureF,Dew PointF,Humidity,Sea Level PressureIn,VisibilityMPH,Wind Direction,Wind SpeedMPH,Gust SpeedMPH,PrecipitationIn,Events,Conditions,WindDirDegrees,DateUTC
1:28 AM,37.4,32.0,81,29.81,10.0,North,13.8,27.6,N/A,,Scattered Clouds,350,2012-12-09 07:28:00
1:37 AM,37.4,33.8,87,29.82,8.0,NNW,13.8,-,N/A,,Mostly Cloudy,340,2012-12-09 07:37:00
1:51 AM,37.0,34.0,89,29.81,7.0,NNW,9.2,19.6,N/A,,Overcast,340,2012-12-09 07:51:00
2:51 AM,39.0,36.0,89,29.83,5.0,North,15.0,21.9,N/A,,Overcast,360,2012-12-09 08:51:00
3:51 AM,37.9,30.9,76,29.86,10.0,North,17.3,26.5,N/A,,Overcast,350,2012-12-09 09:51:00
3:58 AM,37.4,28.4,70,29.89,10.0,North,20.7,28.8,N/A,,Overcast,360,2012-12-09 09:58:00
4:05 AM,37.4,28.4,70,29.89,10.0,North,20.7,28.8,N/A,,Overcast,360,2012-12-09 10:05:00
4:51 AM,35.1,25.0,67,29.88,10.0,North,13.8,25.3,N/A,,Overcast,360,2012-12-09 10:51:00
5:51 AM,35.1,21.0,57,29.93,10.0,North,17.3,-,N/A,,Overcast,10,2012-12-09 11:51:00
6:51 AM,35.1,18.0,50,29.96,10.0,North,17.3,26.5,N/A,,Overcast,10,2012-12-09 12:51:00
7:51 AM,35.1,19.0,52,30.01,10.0,North,10.4,-,N/A,,Overcast,360,2012-12-09 13:51:00
8:51 AM,35.1,19.0,52,30.04,10.0,North,10.4,-,N/A,,Overcast,10,2012-12-09 14:51:00
9:51 AM,36.0,19.0,50,30.08,10.0,NNE,15.0,-,N/A,,Scattered Clouds,20,2012-12-09 15:51:00
10:51 AM,37.9,17.1,43,30.10,10.0,NNE,20.7,25.3,N/A,,Partly Cloudy,20,2012-12-09 16:51:00
11:51 AM,37.9,10.9,33,30.08,10.0,North,21.9,28.8,N/A,,Clear,360,2012-12-09 17:51:00
12:51 PM,37.9,9.0,30,30.08,10.0,North,19.6,29.9,N/A,,Clear,360,2012-12-09 18:51:00
1:51 PM,39.0,10.0,30,30.08,10.0,North,21.9,28.8,N/A,,Clear,360,2012-12-09 19:51:00
4:51 PM,32.0,7.0,35,30.14,10.0,North,19.6,27.6,N/A,,Clear,10,2012-12-09 22:51:00
5:51 PM,30.0,6.1,36,30.18,10.0,North,20.7,28.8,N/A,,Overcast,360,2012-12-09 23:51:00
6:51 PM,30.0,5.0,35,30.21,10.0,North,20.7,28.8,N/A,,Overcast,360,2012-12-10 00:51:00
7:51 PM,30.0,3.9,33,30.25,10.0,North,18.4,27.6,N/A,,Overcast,350,2012-12-10 01:51:00
8:51 PM,28.0,9.0,45,30.27,10.0,North,21.9,28.8,N/A,,Overcast,350,2012-12-10 02:51:00
9:51 PM,26.1,14.0,60,30.27,10.0,North,12.7,-,0.00,,Overcast,10,2012-12-10 03:51:00
11:51 PM,24.1,1.9,38,30.28,10.0,North,16.1,-,N/A,,Clear,360,2012-12-10 05:51:00